Location: Unspecified
(40.8819°N, 0.0000°E)
Time: 17:28:56
(UTC+00:00)

PCSat - Pass Details

Date: 14 April 2024
Orbit: 783 x 792 km, 67.1° (Epoch: 22 May)

Event Time Altitude Azimuth Distance (km) Brightness Sun altitude
Rises 21:34:15 0° 232° (SW) 3,266 12.8 -29.2°
Reaches altitude 10° 21:36:49 10° 240° (WSW) 2,342 12.1 -29.5°
Maximum altitude 21:41:46 37° 307° (NW) 1,216 10.9 -30.1°
Drops below altitude 10° 21:46:46 10° 15° (NNE) 2,361 12.4 -30.7°
Sets 21:49:23 0° 23° (NNE) 3,295 13.1 -31.0°
